Location: Sweetwater (historical)
(38.4624°N, 119.1749°W)
Time: 12:32:29
(UTC+00:00)

ADEOS Rocket - Pass Details

Date: 13 August 2020
Orbit: 858 x 1307 km, 98.7° (Epoch: 20 September)

Event Time Altitude Azimuth Distance (km) Brightness Sun altitude
Rises 12:15:49 0° 157° (SSE) 4,183 6.2 -10.5°
Reaches altitude 10° 12:18:26 10° 155° (SSE) 3,254 5.7 -10.1°
Maximum altitude 12:26:01 72° 73° (ENE) 1,365 4.0 -8.7°
Drops below altitude 10° 12:33:46 10° 351° (N) 3,316 6.0 -7.4°
Sets 12:36:27 0° 350° (N) 4,266 6.5 -6.9°
